Dewpoint
26 29 31 34 39 45 55 54 53 53 51 51 51 50 48 46 45 43 42 39 36 34 33 31 27 30 30 31 32 32 34 33 23 25 27 26 29 29 30 34 31 31 31
25 28 30 34 37 40 54 53 53 52 51 50 50 49 46 44 43 42 41 38 36 34 32 32 29 29 29 29 29 29 32 34 26 22 25 25 25 27 27 30 30 29 28
24 26 27 29 33 37 53 53 52 51 50 50 50 48 46 44 42 41 41 39 36 35 33 31 30 28 28 28 27 28 28 28 30 24 23 26 25 26 25 25 25 25 26
23 24 25 27 28 35 37 52 51 51 50 49 49 48 47 44 43 42 42 40 36 34 33 31 30 28 27 27 26 26 26 25 28 27 25 24 24 26 25 23 23 26 25
22 23 24 26 27 33 36 46 51 50 49 49 48 48 46 44 42 42 41 39 36 33 33 31 31 29 28 28 26 26 26 25 26 26 25 25 25 25 23 25 23 24 26
21 21 23 25 26 29 34 36 50 49 49 48 48 47 46 44 42 42 41 40 38 36 34 33 31 30 29 30 28 29 27 25 24 24 26 24 24 25 25 25 24 23 21
20 21 22 23 24 26 31 35 40 48 48 47 47 47 46 45 45 44 43 40 38 37 35 34 33 32 32 31 32 31 30 29 27 25 23 24 23 25 26 25 25 24 23
19 19 21 22 23 25 28 32 35 48 47 46 46 46 45 45 44 44 42 39 35 34 34 33 33 32 33 31 32 31 31 32 30 27 25 25 25 27 27 26 26 27 27
17 18 20 21 22 24 26 29 33 37 46 46 45 44 43 43 43 42 41 37 33 32 33 33 33 32 33 33 31 30 30 32 35 30 28 29 29 31 30 29 26 25 24
17 18 20 22 22 24 26 27 31 34 37 44 44 44 43 42 42 42 40 36 34 35 36 36 37 32 34 35 30 30 28 29 33 33 33 34 35 35 33 29 28 25 23
17 18 19 21 22 24 26 28 30 32 35 43 42 42 42 42 42 42 41 39 36 36 36 36 37 35 37 35 31 30 28 33 34 32 31 31 30 27 25 26 26 24 20
16 17 18 20 22 25 26 27 29 32 35 41 42 42 42 42 42 42 42 40 37 35 35 36 36 36 36 36 32 33 33 33 32 30 29 28 26 23 21 22 21 23 24
15 15 17 20 22 24 24 26 27 30 33 38 40 41 41 42 42 42 41 40 39 37 37 36 34 36 37 37 35 35 35 32 31 29 28 28 26 22 21 21 21 21 21
13 14 17 18 23 22 24 26 27 29 30 33 37 39 40 41 41 42 42 41 39 37 38 37 37 36 36 37 38 38 34 34 32 31 29 26 24 21 20 20 19 21 19
13 14 16 19 21 21 23 25 27 30 30 29 32 35 37 39 41 41 40 40 40 39 40 39 38 38 37 37 36 34 32 32 31 28 27 25 23 21 19 20 20 18 16
12 13 15 19 19 21 22 24 28 30 31 31 32 35 36 40 41 43 41 40 42 41 39 38 38 38 36 35 33 32 31 31 28 27 26 24 23 21 19 19 18 15 13
12 13 17 17 19 20 21 22 23 25 30 31 32 35 37 38 41 42 42 42 41 40 37 36 36 36 36 35 33 32 31 29 28 27 25 24 22 21 20 17 15 14 14
13 15 16 18 19 19 21 21 23 23 24 26 31 32 35 38 40 41 41 40 38 39 37 36 35 35 35 33 32 32 29 28 27 26 25 23 22 21 18 16 15 13 13
13 15 17 19 18 20 20 21 22 23 24 26 29 32 32 37 39 41 40 37 37 36 36 36 35 35 34 33 32 30 29 28 27 26 25 23 21 19 17 16 14 15 14
13 14 14 18 17 18 19 20 21 23 23 25 26 29 31 33 37 37 37 37 36 36 35 35 34 34 33 32 31 30 29 28 26 24 23 22 20 18 16 15 17 16 13
15 12 14 15 16 17 18 20 20 22 23 24 26 29 32 32 33 35 34 35 35 35 35 34 33 33 32 31 30 29 28 26 25 23 21 20 19 17 16 16 16 14 14
11 12 13 14 15 16 19 19 20 21 23 24 25 28 30 31 32 32 32 32 33 34 34 33 33 32 31 31 30 29 26 25 23 21 19 19 18 17 16 15 14 15 15
10 11 12 13 14 16 17 18 19 20 22 23 24 25 26 28 31 31 31 31 31 31 32 32 31 31 31 31 30 28 25 24 22 20 19 18 17 16 15 14 15 15 15
9 10 11 12 13 16 15 17 18 19 21 21 22 22 23 24 26 28 29 30 29 30 30 30 29 29 28 28 27 26 24 23 21 20 19 18 17 17 16 15 15 15 15
8 8 9 11 12 14 15 16 17 18 18 19 20 20 21 22 23 24 26 26 27 27 27 27 27 26 26 25 25 24 23 22 21 19 18 17 17 16 15 15 16 16 15
6 7 8 10 11 13 14 15 16 16 17 18 19 19 20 20 21 22 22 23 23 23 24 24 24 23 23 23 24 25 24 22 21 19 18 17 16 16 16 16 16 15 15
Wind_Speed
18 19 20 17 14 20 32 30 29 28 31 31 30 28 29 28 28 27 26 24 25 23 19 22 24 18 18 17 13 11 8 5 4 4 2 2 5 11 10 8 8 9 9
19 17 15 16 19 24 27 30 28 27 27 31 28 28 28 27 27 29 27 24 27 26 25 20 20 18 20 17 18 17 13 8 5 10 4 3 2 6 8 9 9 7 9
20 19 19 18 22 24 18 28 29 29 28 28 30 30 30 30 29 27 27 25 27 27 27 27 24 21 20 17 19 18 14 10 6 8 7 3 2 4 3 4 5 7 8
23 21 19 22 22 21 19 26 29 29 30 29 29 30 30 30 29 29 27 24 23 22 22 23 22 25 23 20 20 20 15 14 9 10 6 5 3 2 1 5 9 4 8
19 17 18 19 21 21 13 11 27 29 29 30 29 27 28 29 28 30 29 27 26 22 21 21 19 20 19 20 20 20 20 16 13 12 8 5 7 5 9 6 8 5 4
22 24 22 19 20 20 15 16 22 28 29 29 30 30 30 27 29 31 29 28 26 25 25 23 17 23 23 22 19 18 22 24 18 14 10 10 11 7 6 7 5 3 4
20 19 19 20 19 20 17 12 13 25 27 29 29 29 29 28 32 35 33 27 27 29 28 26 22 19 20 18 19 20 20 21 18 20 17 14 10 12 10 7 9 8 7
19 20 21 20 19 21 18 16 17 19 27 28 27 27 27 27 33 36 36 28 27 28 28 29 28 23 23 22 19 19 18 16 15 13 14 11 8 9 12 8 11 6 2
23 23 22 21 21 19 19 18 14 13 19 25 27 27 27 25 33 37 35 27 25 25 25 25 25 25 24 27 24 23 19 15 9 12 9 7 9 9 12 10 6 5 4
22 22 20 19 17 18 18 17 11 10 9 16 21 24 28 26 33 37 36 25 25 22 21 21 26 23 26 29 26 25 23 19 17 12 9 9 9 9 10 5 10 7 4
20 19 18 17 17 16 17 15 15 11 11 15 20 21 23 25 28 37 38 28 25 24 24 23 23 28 32 34 26 24 23 20 19 18 15 12 10 9 7 7 7 6 7
21 19 20 20 16 15 17 17 15 9 9 10 19 18 20 23 26 37 40 33 28 27 26 25 25 33 33 31 25 20 23 22 17 17 16 14 14 12 10 12 12 11 8
21 22 22 22 18 16 16 16 14 13 7 5 14 19 19 20 21 35 39 38 31 26 22 21 23 31 30 27 24 28 26 19 19 18 18 14 12 12 13 14 12 13 12
21 20 19 20 20 18 15 13 12 11 9 2 11 13 14 18 20 25 30 33 27 25 22 22 25 25 23 19 22 23 17 17 21 19 16 13 13 12 12 9 10 9 7
20 18 18 16 17 16 15 14 13 10 10 8 3 4 12 18 20 27 30 30 27 25 23 21 22 22 21 19 17 17 15 17 18 15 17 17 15 13 10 8 9 7 5
19 17 17 15 16 15 16 17 15 14 14 7 9 7 6 9 15 28 36 38 30 35 24 24 24 24 24 23 23 21 17 18 16 17 16 17 17 16 15 9 9 9 10
17 19 16 18 16 16 15 14 16 18 13 9 8 4 7 8 17 27 31 33 36 34 22 25 25 26 25 24 23 24 20 17 17 17 18 17 17 16 14 14 13 13 11
18 20 16 16 15 15 13 15 13 13 13 13 11 5 3 8 16 24 29 31 30 25 21 25 25 26 25 25 23 22 20 19 18 17 17 17 17 18 18 16 15 13 13
17 16 16 12 14 14 13 14 13 12 12 12 12 6 3 3 11 26 34 26 28 22 23 21 21 23 23 22 21 21 23 22 20 19 17 18 17 18 17 16 15 14 13
15 19 20 13 14 13 12 13 13 11 11 12 12 11 9 2 12 23 23 20 20 17 20 22 21 21 23 24 23 22 21 21 20 18 18 18 18 18 19 19 16 16 12
12 15 19 13 13 13 13 12 14 12 10 11 12 11 12 0 10 15 12 17 18 18 18 20 21 22 22 23 23 23 22 21 19 19 19 18 19 19 17 16 17 16 15
12 12 13 13 13 14 11 11 13 13 10 9 11 10 11 2 8 10 11 11 11 13 14 17 19 21 23 26 26 26 25 23 21 21 20 20 19 19 18 18 17 16 13
12 14 14 13 13 13 13 10 11 12 12 10 9 8 8 5 5 10 14 14 14 15 14 15 16 17 16 18 20 24 28 26 24 23 23 22 21 20 18 19 18 16 13
12 12 12 13 13 11 12 11 11 12 10 9 9 9 8 6 5 8 11 14 16 14 14 15 16 19 18 18 18 18 20 22 23 24 25 23 21 20 17 18 18 15 13
12 12 12 12 13 12 12 12 11 9 9 8 8 7 6 6 6 8 10 12 16 17 16 16 16 20 20 21 20 21 26 31 25 25 22 23 23 22 19 18 17 15 12
13 13 12 11 11 11 10 9 8 7 8 8 7 6 5 6 6 8 10 12 16 17 17 16 18 22 23 21 24 28 31 33 30 30 23 24 23 20 18 18 18 16 12
Wind_Direction
320 347 344 332 318 313 184 179 181 174 173 177 183 180 180 181 183 183 187 182 185 183 202 199 195 182 190 180 159 177 179 159 139 169 176 187 176 191 197 211 219 229 250
341 345 340 338 329 324 192 179 175 177 176 177 181 182 183 185 184 186 187 184 186 188 192 194 198 188 196 180 166 181 184 170 135 164 180 163 181 196 195 207 225 233 257
352 345 345 355 349 320 208 180 175 176 177 178 180 184 185 186 186 190 190 185 190 192 190 192 192 191 194 184 174 177 185 171 143 149 154 159 149 173 180 215 228 240 255
352 348 348 357 339 303 311 187 178 177 178 181 185 186 187 187 188 189 191 191 191 192 189 189 186 191 191 185 176 182 179 171 157 148 144 155 163 156 192 210 230 232 256
339 336 352 349 330 306 320 278 186 179 182 183 183 187 188 190 191 191 192 192 190 184 185 184 184 185 188 188 182 180 180 177 173 168 169 164 175 176 207 207 225 246 262
334 352 344 343 332 319 344 332 199 182 180 181 185 185 187 192 191 188 186 188 188 183 186 184 181 178 188 190 195 180 181 181 185 179 181 201 203 196 183 199 180 221 262
344 342 339 333 329 335 339 335 303 190 179 182 183 185 189 192 188 187 190 192 189 190 188 180 179 187 183 189 192 187 191 192 187 184 197 205 209 199 183 189 213 207 222
344 337 338 331 333 339 339 353 336 205 186 182 182 185 187 191 186 188 187 192 192 192 190 184 179 181 184 182 178 189 197 194 193 186 200 207 199 184 186 188 211 184 115
339 337 332 324 336 335 338 340 342 328 197 186 183 182 186 190 185 185 184 190 191 187 182 178 174 178 181 180 182 192 196 199 179 191 187 177 179 174 164 148 166 181 238
331 324 320 320 333 333 331 327 317 311 302 189 180 185 186 187 185 185 183 184 186 183 183 181 180 182 179 182 185 183 193 198 173 158 145 129 136 143 137 182 174 195 167
319 321 323 327 331 333 328 321 314 340 303 198 184 183 188 185 187 185 185 188 188 184 185 185 188 187 182 186 184 181 191 157 161 152 144 135 132 126 129 111 116 150 173
322 331 331 334 336 341 336 326 327 325 277 204 180 184 189 188 185 187 188 193 190 188 188 188 188 186 180 180 175 163 150 144 148 156 157 167 163 162 129 109 103 95 84
335 337 337 336 335 344 339 328 334 339 337 204 185 189 188 184 186 188 189 192 189 190 187 186 178 173 169 169 158 149 142 151 159 169 180 179 168 144 125 108 98 94 90
335 334 331 337 343 342 336 330 327 343 337 267 189 193 184 180 183 187 192 195 197 189 174 162 160 165 165 160 147 151 154 163 170 178 169 143 129 143 142 129 129 131 111
330 329 332 333 332 335 334 321 329 322 319 310 265 190 194 190 191 184 184 185 185 179 157 149 152 153 157 159 155 154 153 156 162 152 154 153 149 151 149 147 140 132 127
329 327 326 335 329 336 335 329 332 336 341 316 283 239 238 235 202 190 187 187 178 163 163 168 173 173 171 168 164 159 163 162 151 147 156 154 159 158 153 144 132 142 142
320 318 326 332 331 335 335 333 332 335 347 346 341 318 201 225 211 193 185 179 171 163 171 170 169 172 173 168 166 164 169 159 141 152 153 154 150 150 149 149 146 139 132
319 326 328 320 326 326 335 325 325 330 337 337 340 336 13 214 222 187 170 157 165 172 172 172 170 168 167 163 162 156 145 145 153 152 151 150 152 150 152 156 154 145 138
318 318 324 322 321 329 331 322 317 326 338 336 341 343 357 332 218 177 163 170 174 173 169 171 168 162 159 157 157 152 151 154 154 151 150 149 148 149 148 151 148 148 141
313 327 333 330 319 325 333 325 322 332 339 339 343 347 341 74 182 172 171 173 174 170 166 162 160 157 155 154 150 148 146 150 150 149 148 148 146 147 151 153 154 153 143
315 322 331 326 319 323 326 328 325 327 334 338 333 334 340 269 158 174 174 171 169 162 162 160 156 154 152 149 148 150 151 151 151 147 148 145 142 144 146 150 150 144 136
332 324 318 318 322 322 327 336 326 323 329 333 327 331 347 356 135 136 130 128 130 137 144 151 154 157 157 155 154 153 152 152 149 146 144 141 136 141 146 149 145 139 136
337 328 328 324 317 321 331 331 335 333 353 355 347 351 6 17 123 144 140 134 129 128 126 132 136 139 145 150 153 154 153 156 154 147 142 140 142 146 148 148 145 140 138
334 330 322 316 317 337 332 332 340 342 346 347 348 4 12 35 74 116 127 126 121 117 119 124 130 134 135 134 137 141 141 139 141 142 141 141 141 140 137 142 145 143 146
335 328 325 323 324 328 331 333 337 346 340 347 356 5 20 43 73 89 101 112 116 115 112 117 120 124 127 131 135 136 139 137 135 136 134 135 134 137 139 142 146 144 139
332 328 329 323 326 327 323 320 329 347 351 351 5 13 31 65 72 89 100 108 109 109 109 110 116 120 121 123 128 135 140 138 136 133 130 131 134 136 140 144 146 142 140